Regional Weather Roundup
Issued by NWS Charleston, SC

Current Version | Previous Version | Text Only | Print | Product List | Glossary On
Versions: 1 2 3 4 5 6 7 8 9 10 11 12 13 14 15 16 17 18 19 20 21 22 23 24 25 26 27 28 29 30 31 32 33 34 35 36 37 38 39 40 41 42 43 44 45 46 47 48 49 50
856 ASUS42 KCHS 260111 RWRCHS REGIONAL WEATHER ROUNDUP NATIONAL WEATHER SERVICE CHARLESTON SC 800 PM EST SAT FEB 25 2017 NOTE: "FAIR" INDICATES FEW OR NO CLOUDS BELOW 12,000 FEET WITH NO SIGNIFICANT WEATHER AND/OR OBSTRUCTIONS TO VISIBILITY. NOT ALL STATIONS ARE QUALITY CONTROLLED. USE DATA WITH CAUTION... ESPECIALLY DEWPOINT OBSERVATIONS. SCZ027-030-031-034>040-042>050-260200- ...SOUTHEAST SOUTH CAROLINA... CITY SKY/WX TMP DP RH WIND PRES REMARKS N CHARLESTON CLEAR 71 47 42 W13G20 29.80R WATERFRONT PRK N/A 67 62 84 VRB3 29.77R MOUNT PLEASANT FAIR 66 61 82 SW8 29.80R JOHNS ISLAND FAIR 66 61 82 SW3 29.81R PINOPOLIS N/A 72 46 40 W15 29.69R MONCKS CORNER FAIR 68 30 24 W3 29.80R SUMMERVILLE FAIR 70 32 24 W6 29.82R BEAUFORT MCAS CLEAR 70 38 31 W8 29.83R BEAUFORT ARPT FAIR 70 39 32 W12 29.83R HILTON HEAD IS CLEAR 73 32 21 SW9G18 29.84R WALTERBORO CLEAR 68 28 22 W9 29.83R ALLENDALE FAIR 66 21 18 VRB5G13 29.84R ...SOUTHERN MIDLANDS AND PEE DEE... CITY SKY/WX TMP DP RH WIND PRES REMARKS GEORGETOWN FAIR 63 59 88 SW7 29.77R KINGSTREE FAIR 68 27 21 W17G24 29.78R ORANGEBURG CLEAR 66 19 16 W12 29.83R BARNWELL FAIR 66 19 16 W13G18 29.86R AIKEN FAIR 59 23 25 W12G18 29.90R MANNING FAIR 68 23 18 MISG 29.81R COLUMBIA CLEAR 62 22 21 W13 29.84R SUMTER CLEAR 64 17 16 W14G20 29.79R FLORENCE CLEAR 69 26 20 W13G22 29.77R MYRTLE BEACH CLEAR 66 61 82 S7 29.74R N MYRTLE BEACH CLEAR 63 60 90 SW10 29.73R $$ GAZ063-065-086>088-099>101-113>116-118-119-134>141-150-260200- ...SOUTHEAST GEORGIA... CITY SKY/WX TMP DP RH WIND PRES REMARKS SAVANNAH ARPT CLEAR 67 31 26 W8 29.85R HUNTER AAF CLEAR 65 42 43 W3 29.83R FORT STEWART CLEAR 68 31 24 W8 29.85R STATESBORO CLEAR 65 34 31 NW8 29.87R SYLVANIA CLEAR N/A N/A N/A NW9G18 29.87R CLAXTON FAIR 66 33 28 SW7 29.88R ...CSRA...CENTRAL AND FAR SOUTHEAST GEORGIA... CITY SKY/WX TMP DP RH WIND PRES REMARKS THOMSON CLEAR 60 23 24 W7 29.96R AUGUSTA-BUSH CLEAR 64 18 17 NW14 29.88R AUGUSTA-DANIEL CLEAR 63 16 16 W12G21 29.89R SWAINSBORO FAIR 63 23 22 NW10G16 29.91R VIDALIA PTCLDY 66 34 30 NW6 29.89R EASTMAN FAIR N/A N/A N/A NW3 29.95R HAZLEHURST FAIR 66 32 28 W3 29.89R ALMA PTCLDY 66 32 28 W6 29.90R WAYCROSS CLEAR 68 38 33 W6 29.90R JESUP FAIR 66 32 28 NW6 29.89R BAXLEY FAIR 64 37 36 W3 29.89R BRUNSWICK CLEAR 68 55 64 W7 29.88R SAINT SIMONS CLEAR 69 58 67 W5 29.87R $$ SCZ027-028-034-036>038-045-046-048>050-GAZ119-141-260200- ...LAKE AND SUPPLEMENTAL COASTAL OBSERVATIONS... STATION/POSITION TIME TEMP WIND PRES WAVE SWELL AIR SEA DIR/SP/G HT/PER HT/PER/DIR (UTC) (F) (DEG/KT/KT) (MB) (FT/S) (FT/S/D) WINYAH BAY 2345 67 220/ 9 1007.0 LAKE MURRAY 0020 64 270/ 17/ 23 1009.5R ACE BASIN NERRS NOT AVBL FORT PULASKI 0048 72 64 280/ 11/ 13 1010.7R SAPELO ISLAND 0000 69 220/ 7 1010.0 $$ ANZ835-935-AMZ111-154-330-350-352-354-370-450-454-472-260200- ...C-MAN AND BUOY OBSERVATIONS... STATION/POSITION TIME TEMP WIND PRES WAVE SWELL AIR SEA DIR/SP/G HT/PER HT/PER/DIR (UTC) (F) (DEG/KT/KT) (MB) (FT/S) (FT/S/D) BUOY 41004 2350 70 70 220/ 19/ 23 1007.5 6/10 3/120/10 BUOY 41008 2350 66 63 210/ 10/ 10 1009.6 4/ 9 3/ 70/ 9 FOLLY BEACH CMAN 0000 65 230/ 10/ 14 1008.8R CAPERS NEARSHORE 0008 64 62 230/ 16/ 21 1007.9R FRIPP NEARSHORE 0008 65 63 230/ 12/ 14 1008.7R STATION/POSITION TIME TEMP WIND PRES WAVE SWELL AIR SEA DIR/SP/G HT/PER HT/PER/DIR (UTC) (F) (DEG/KT/KT) (MB) (FT/S) (FT/S/D) 5E ST. MARYS GA 0030 66 N/A 3/10 2/ 90/11 FRYING PAN BUOY 0050 72 72 220/ 23/ 27 1007.0R 8/ 6 3/150/10 BUOY 41025 0050 74 75 230/ 29/ 35 1003.6R 8/11 5/130/11 CAPE LOOKOUT NC 0000 69 220/ 15/ 22 1004.6R BUOY 41002 2350 72 71 240/ 14/ 16 1010.2 7/ 9 7/100/ 9 BUOY 41010 NOT AVBL ST AUGUSTINE FL 0000 75 67 270/ 3/ 4 1012.0R $$

USA.gov is the U.S. government's official web portal to all federal, state and local government web resources and services.